Darstellungsparameter: Aktuell verwendete Einstellungen:
Skalierung der Graphiken ... ?
xyx+y,   Skalierungsfaktor:      Skalierung: Modus: x, Faktor: 1
Darstellungszeitraum ... ?
Vom - - bis: - -   Zeitraum: 01.03.2010 - 01.03.2010
Min/Max/Avg-Anzeige ... ?
Zeige MMA aktuell
Zeige MMA Monat
Zeige MMA alles
Zeige --A aktuell
Zeige --A Monat
Zeige --A alles
Keine MMA-Anzeige
MMA:
Average (ber die Originaldaten)
MMA-Basis: 01.03.2010 - 01.03.2010
Quicknavigation für Darstellung... ?
Tage:      1T, 2T, 3T, 5T -1T -2T -3T -5T +1T +2T +3T +5T
Wochen: 1W, 2W, 3W -1W -2W -3W +1W +2W +3W
Monate: 1M, 3M, 6M -1M -3M -6M +1M +3M +6M
Jahre:    1J, 3J, 5J, 10J -1J -3J -5J -10J +1J +3J +5J +10J
Nutze für die Darstellung ... ?
Originaldaten oder Mittelwerte auf ...
Stundenbasis Tagesbasis Wochenbasis
Monatsbasis Jahresbasis      Datenbasis: Original-Daten
Darstellen als:
Statistik (Auto) Statistik J:M      Darstellung:
Zur Graphik,    zurück zur Übersicht aller Sensoren.
 
Tabellarische Datenbersicht: ?
 
Sensor: Nr:Datum:Temp:Abs-Feuchte:Windchill:Wind:
Aussen-T/F 1 01-03-2010 00:08:03 6.3 C 4.89 g/m*3 6.3 C 0 km/h
2 01-03-2010 00:20:04 6.1 C 4.89 g/m*3 6.1 C 0 km/h
3 01-03-2010 00:32:04 6.2 C 4.85 g/m*3 6.2 C 0 km/h
4 01-03-2010 00:44:04 6.1 C 4.75 g/m*3 6.1 C 0 km/h
5 01-03-2010 00:56:04 6.1 C 4.6 g/m*3 6.1 C 0 km/h
6 01-03-2010 01:08:04 5.9 C 4.76 g/m*3 5.9 C 0 km/h
7 01-03-2010 01:20:04 5.7 C 4.7 g/m*3 5.7 C 0 km/h
8 01-03-2010 01:32:04 5.8 C 4.37 g/m*3 5.8 C 0 km/h
9 01-03-2010 01:44:04 5.7 C 4.34 g/m*3 5.7 C 0 km/h
10 01-03-2010 01:56:04 5.8 C 4.23 g/m*3 5.8 C 0 km/h
11 01-03-2010 02:08:04 5.8 C 4.23 g/m*3 5.8 C 0 km/h
12 01-03-2010 02:20:04 5.7 C 3.99 g/m*3 5.7 C 0 km/h
13 01-03-2010 02:32:04 5.6 C 3.96 g/m*3 5.6 C 0 km/h
14 01-03-2010 02:44:05 5.5 C 3.93 g/m*3 5.5 C 0 km/h
15 01-03-2010 02:56:05 5.4 C 4.05 g/m*3 5.4 C 0 km/h
16 01-03-2010 03:08:05 5.3 C 4.09 g/m*3 5.3 C 0 km/h
17 01-03-2010 03:20:05 5 C 4.14 g/m*3 5 C 0 km/h
18 01-03-2010 03:32:05 5 C 4.14 g/m*3 5 C 0 km/h
19 01-03-2010 03:44:05 4.9 C 4.12 g/m*3 4.9 C 0 km/h
20 01-03-2010 03:56:05 4.8 C 4.09 g/m*3 4.8 C 0 km/h
21 01-03-2010 04:08:05 4.7 C 4.13 g/m*3 4.7 C 0 km/h
22 01-03-2010 04:20:05 4.6 C 4.17 g/m*3 4.6 C 0 km/h
23 01-03-2010 04:32:05 4.6 C 4.23 g/m*3 4.6 C 0 km/h
24 01-03-2010 04:44:05 4.7 C 4.33 g/m*3 4.7 C 0 km/h
25 01-03-2010 04:56:05 4.8 C 4.36 g/m*3 4.8 C 0 km/h
Sensor: Nr:Datum:Temp:Abs-Feuchte:Windchill:Wind:
Aussen-T/F 26 01-03-2010 05:08:05 4.4 C 4.7 g/m*3 4.4 C 0 km/h
27 01-03-2010 05:20:05 4.1 C 4.99 g/m*3 4.1 C 0 km/h
28 01-03-2010 05:32:05 3.8 C 5.08 g/m*3 3.8 C 0 km/h
29 01-03-2010 05:44:05 3.5 C 5.04 g/m*3 3.5 C 0 km/h
30 01-03-2010 05:56:05 3.5 C 5.04 g/m*3 3.5 C 0 km/h
31 01-03-2010 06:08:05 3.4 C 5.01 g/m*3 3.4 C 0 km/h
32 01-03-2010 06:20:05 3.4 C 5.01 g/m*3 3.4 C 0 km/h
33 01-03-2010 06:32:05 3.6 C 4.89 g/m*3 3.6 C 0 km/h
34 01-03-2010 06:44:05 3.8 C 4.77 g/m*3 3.8 C 0 km/h
35 01-03-2010 06:56:05 4 C 4.64 g/m*3 4 C 0 km/h
36 01-03-2010 07:08:05 4.1 C 4.48 g/m*3 4.1 C 0 km/h
37 01-03-2010 07:20:03 4.2 C 4.38 g/m*3 4.2 C 0 km/h
38 01-03-2010 07:32:03 4.2 C 4.12 g/m*3 4.2 C 0 km/h
39 01-03-2010 07:44:03 4.4 C 3.92 g/m*3 4.4 C 0 km/h
40 01-03-2010 07:56:02 4.6 C 3.77 g/m*3 4.6 C 0 km/h
41 01-03-2010 08:08:02 4.6 C 3.71 g/m*3 4.6 C 0 km/h
42 01-03-2010 08:20:02 4.8 C 3.69 g/m*3 4.8 C 0 km/h
43 01-03-2010 08:32:02 4.9 C 3.71 g/m*3 4.9 C 0 km/h
44 01-03-2010 08:44:02 5 C 3.67 g/m*3 5 C 0 km/h
45 01-03-2010 08:56:01 5.1 C 3.69 g/m*3 5.1 C 0 km/h
46 01-03-2010 09:08:02 5.2 C 3.86 g/m*3 5.2 C 0 km/h
47 01-03-2010 09:20:01 5.3 C 4.02 g/m*3 5.3 C 0 km/h
48 01-03-2010 09:32:02 5.4 C 3.91 g/m*3 5.4 C 0 km/h
49 01-03-2010 09:44:02 5.6 C 3.96 g/m*3 5.6 C 0 km/h
50 01-03-2010 09:56:01 5.8 C 4.01 g/m*3 5.8 C 0 km/h
Sensor: Nr:Datum:Temp:Abs-Feuchte:Windchill:Wind:
Aussen-T/F 51 01-03-2010 10:08:02 6 C 3.7 g/m*3 6 C 0 km/h
52 01-03-2010 10:20:01 6.2 C 3.6 g/m*3 6.2 C 0 km/h
53 01-03-2010 10:32:02 6.4 C 3.65 g/m*3 6.4 C 0 km/h
54 01-03-2010 10:44:02 6.3 C 3.48 g/m*3 6.3 C 0 km/h
55 01-03-2010 10:56:01 6.4 C 3.5 g/m*3 6.4 C 0 km/h
56 01-03-2010 11:08:02 6.7 C 3.5 g/m*3 6.7 C 0 km/h
57 01-03-2010 11:20:02 6.6 C 3.47 g/m*3 6.6 C 0 km/h
58 01-03-2010 11:32:02 6.3 C 3.41 g/m*3 6.3 C 0 km/h
59 01-03-2010 11:44:02 6.6 C 3.47 g/m*3 6.6 C 0 km/h
60 01-03-2010 11:56:01 7 C 3.33 g/m*3 7 C 0 km/h
61 01-03-2010 12:08:02 7 C 3.33 g/m*3 7 C 0 km/h
62 01-03-2010 12:20:02 7.2 C 3.3 g/m*3 7.2 C 0 km/h
63 01-03-2010 12:32:01 7.5 C 3.2 g/m*3 7.5 C 0 km/h
64 01-03-2010 12:44:01 7.9 C 3.2 g/m*3 7.9 C 0 km/h
65 01-03-2010 12:56:02 7.8 C 3.18 g/m*3 7.8 C 0 km/h
66 01-03-2010 13:08:01 7.7 C 3.16 g/m*3 7.7 C 0 km/h
67 01-03-2010 13:20:02 8 C 3.14 g/m*3 8 C 0 km/h
68 01-03-2010 13:32:01 8 C 3.06 g/m*3 8 C 0 km/h
69 01-03-2010 13:44:01 7.8 C 3.02 g/m*3 7.8 C 0 km/h
70 01-03-2010 13:56:01 7.7 C 3 g/m*3 7.7 C 0 km/h
71 01-03-2010 14:08:01 7.3 C 3.16 g/m*3 7.3 C 0 km/h
72 01-03-2010 14:20:01 7.1 C 3.2 g/m*3 7.1 C 0 km/h
73 01-03-2010 14:32:02 7.6 C 3.22 g/m*3 7.6 C 0 km/h
74 01-03-2010 14:44:02 7.5 C 3.2 g/m*3 7.5 C 0 km/h
75 01-03-2010 14:56:02 7.4 C 3.18 g/m*3 7.4 C 0 km/h
Sensor: Nr:Datum:Temp:Abs-Feuchte:Windchill:Wind:
Aussen-T/F 76 01-03-2010 15:08:02 7.3 C 3.24 g/m*3 7.3 C 0 km/h
77 01-03-2010 15:20:02 7.6 C 3.3 g/m*3 7.6 C 0 km/h
78 01-03-2010 15:32:02 7.5 C 3.28 g/m*3 7.5 C 0 km/h
79 01-03-2010 15:44:02 7.4 C 3.1 g/m*3 7.4 C 0 km/h
80 01-03-2010 15:56:02 7.3 C 3 g/m*3 7.3 C 0 km/h
81 01-03-2010 16:08:01 7.3 C 3.08 g/m*3 7.3 C 0 km/h
82 01-03-2010 16:20:02 7.3 C 3.08 g/m*3 7.3 C 0 km/h
83 01-03-2010 16:32:02 7.3 C 3.08 g/m*3 7.3 C 0 km/h
84 01-03-2010 16:44:02 7.3 C 3.08 g/m*3 7.3 C 0 km/h
85 01-03-2010 16:56:02 7.2 C 3.06 g/m*3 7.2 C 0 km/h
86 01-03-2010 17:08:03 7.1 C 3.12 g/m*3 7.1 C 0 km/h
87 01-03-2010 17:20:02 6.9 C 3.08 g/m*3 6.9 C 0 km/h
88 01-03-2010 17:32:02 6.8 C 3.06 g/m*3 6.8 C 0 km/h
89 01-03-2010 17:44:02 6.8 C 3.14 g/m*3 6.8 C 0 km/h
90 01-03-2010 17:56:01 6.7 C 3.12 g/m*3 6.7 C 0 km/h
91 01-03-2010 18:08:02 6.5 C 3.22 g/m*3 6.5 C 0 km/h
92 01-03-2010 18:20:01 6.4 C 3.5 g/m*3 6.4 C 0 km/h
93 01-03-2010 18:32:01 6 C 3.56 g/m*3 6 C 0 km/h
94 01-03-2010 18:44:01 5.8 C 3.72 g/m*3 5.8 C 0 km/h
95 01-03-2010 18:56:01 5.7 C 3.77 g/m*3 5.7 C 0 km/h
96 01-03-2010 19:08:02 5.6 C 3.68 g/m*3 5.6 C 0 km/h
97 01-03-2010 19:20:01 5.6 C 3.53 g/m*3 5.6 C 0 km/h
98 01-03-2010 19:32:02 5.4 C 3.56 g/m*3 5.4 C 0 km/h
99 01-03-2010 19:44:02 5.3 C 3.53 g/m*3 5.3 C 0 km/h
100 01-03-2010 19:56:02 5.1 C 3.42 g/m*3 5.1 C 0 km/h
Sensor: Nr:Datum:Temp:Abs-Feuchte:Windchill:Wind:
Aussen-T/F 101 01-03-2010 20:08:03 5 C 3.4 g/m*3 5 C 0 km/h
102 01-03-2010 20:20:02 5.1 C 3.42 g/m*3 5.1 C 0 km/h
103 01-03-2010 20:32:02 4.6 C 3.44 g/m*3 4.6 C 0 km/h
104 01-03-2010 20:44:02 4.4 C 3.46 g/m*3 4.4 C 0 km/h
105 01-03-2010 20:56:02 4.4 C 3.4 g/m*3 4.4 C 0 km/h
106 01-03-2010 21:08:02 3.8 C 3.51 g/m*3 3.8 C 0 km/h
107 01-03-2010 21:20:02 3.4 C 3.54 g/m*3 3.4 C 0 km/h
108 01-03-2010 21:32:01 3.4 C 3.6 g/m*3 3.4 C 0 km/h
109 01-03-2010 21:44:01 3.3 C 3.64 g/m*3 3.3 C 0 km/h
110 01-03-2010 21:56:02 3.1 C 3.71 g/m*3 3.1 C 0 km/h
111 01-03-2010 22:08:02 2.8 C 3.64 g/m*3 2.8 C 0 km/h
112 01-03-2010 22:21:03 2.6 C 3.82 g/m*3 2.6 C 0 km/h
113 01-03-2010 22:33:03 2.4 C 3.83 g/m*3 2.4 C 0 km/h
114 01-03-2010 22:45:03 2.1 C 3.86 g/m*3 2.1 C 0 km/h
115 01-03-2010 22:57:03 2 C 3.89 g/m*3 2 C 0 km/h
116 01-03-2010 23:09:03 1.8 C 3.95 g/m*3 1.8 C 0 km/h
117 01-03-2010 23:21:03 1.5 C 3.92 g/m*3 1.5 C 0 km/h
118 01-03-2010 23:33:03 1.2 C 3.89 g/m*3 1.2 C 0 km/h
119 01-03-2010 23:45:03 1.1 C 3.92 g/m*3 1.1 C 0 km/h
120 01-03-2010 23:57:03 1.1 C 3.97 g/m*3 1.1 C 0 km/h

Legende:
   Min
   Max


Maximal/Minimal-Werte vom 01.03.2010 - 01.03.2010

Sensor Min Max Avg
Temp
(Aussen-T/F)
1.1 °C
01-03-2010  23:45:03
8 °C
01-03-2010  13:20:02
5.41 °C
Abs-Feuchte
(Aussen-T/F)
3 g/m*3
01-03-2010  13:56:01
5.08 g/m*3
01-03-2010  05:32:05
3.76 g/m*3
Windchill
(Aussen-T/F)
1.1 C
01-03-2010  23:45:03
8 C
01-03-2010  13:20:02
5.36 C

Die Daten stammen von einer Davis Vantage Pro 2 Wetter-Station und werden unter Linux mit der Software wview2wettercgi und aufbereitet. Alle Angaben erfolgen ohne Gewähr für ihre Vollständigkeit oder Richtigkeit.
Kontakt: Rainer Krienke krienke@uni-koblenz.de . Meine Webseiten an der Uni Koblenz oder privat.
Version: $Revision: 0.78 $